Home > Time Zones > World Clock > Weather > Sweden > Lund > Past weeks

Flag for Sweden Weather past 2 weeks in Lund, Sweden

Now
46 °F

Partly sunny.


Feels Like: 40 °F
Forecast: 40 / 42 °F
Wind: 14 mph from West

Location: Malmo / Sturup

Current Time: Dec 19, 2014 at 12:06:13 PM

Latest Report: Dec 19, 2014 at 11:20 AM


Visibility: N/A

Pressure: 29.45 "Hg

Humidity: 93%

Dew point: 45 °F

Location of LundLocation

Historic Weather in Lund — Graph

°F

Lund temperature yesterday

Maximum temperature yesterday: 48 °F (at 4:50 PM)
Minimum temperature yesterday: 39 °F (at 12:20 AM)
Average temperature yesterday: 44 °F

Past Weeks' High & Low Weather Summary

 TemperatureHumidityPressure
High48 °F (Dec 18, 4:50 PM)100% (Dec 5, 2:20 PM)30.24 "Hg (Dec 5, 2:20 PM)
Low34 °F (Dec 6, 11:20 PM)75% (Dec 13, 2:20 AM)28.97 "Hg (Dec 12, 5:20 PM)
Average40 °F91%29.73 "Hg
* Reported Dec 4 10:20 AM — Dec 19 10:50 AM, Lund, Weather by CustomWeather, © 2014

Note: Actual official high and low records may vary slightly from our data, if they occured in-between our weather recording intervals... More about our weather records

Advertising

Lund weather history for previous 24 hours

 ConditionsComfort  
Time TempWeatherWind HumidityBarometerVisibility
10:50 AM
Dec 19
46 °FLight rain. Fog.15 mph93%29.45 "Hg4 mi
10:20 AM46 °FFog.14 mph93%29.42 "Hg5 mi
9:50 AM46 °FLight rain. Fog.14 mph93%29.45 "Hg3 mi
9:20 AM46 °FDrizzle. Fog.12 mph93%29.45 "Hg6 mi
8:50 AM46 °FMostly cloudy.10 mph93%29.45 "HgN/A
8:20 AM46 °FMostly cloudy.9 mph93%29.45 "HgN/A
7:50 AM46 °FClear.12 mph93%29.45 "Hg10 mi
7:20 AM46 °FClear.14 mph87%29.45 "Hg10 mi
6:50 AM46 °FPassing clouds.14 mph93%29.45 "HgN/A
6:20 AM46 °FPassing clouds.13 mph93%29.45 "HgN/A
5:50 AM46 °FPassing clouds.14 mph93%29.45 "HgN/A
5:20 AM48 °FPassing clouds.15 mph87%29.45 "HgN/A
4:20 AM48 °FPartly cloudy.14 mph94%29.45 "HgN/A
3:50 AM48 °FFog.15 mph100%29.42 "Hg4 mi
3:20 AM48 °FFog.14 mph100%29.42 "Hg3 mi
2:50 AM48 °FFog.15 mph100%29.42 "Hg2 mi
2:20 AM48 °FDrizzle. Fog.17 mph100%29.42 "Hg3 mi
1:50 AM48 °FDrizzle. Fog.17 mph100%29.42 "Hg3 mi
1:20 AM48 °FDrizzle. Fog.17 mph100%29.42 "Hg2 mi
12:50 AM48 °FDrizzle. Fog.17 mph100%29.39 "Hg2 mi
12:20 AM48 °FDrizzle. Fog.16 mph100%29.39 "Hg2 mi
11:50 PM
Dec 18
48 °FDrizzle. Fog.17 mph100%29.39 "Hg3 mi
11:20 PM48 °FRain. Fog.18 mph100%29.39 "Hg2 mi
10:50 PM48 °FLight rain. Fog.18 mph100%29.39 "Hg2 mi
10:20 PM48 °FFog.18 mph100%29.39 "Hg4 mi
9:50 PM48 °FFog.18 mph94%29.39 "Hg3 mi
9:20 PM48 °FFog.20 mph94%29.39 "Hg4 mi
8:50 PM48 °FDrizzle. Fog.21 mph100%29.39 "Hg3 mi
8:20 PM48 °FFog.20 mph100%29.39 "Hg2 mi
7:50 PM48 °FLight rain. Low clouds.20 mph94%29.42 "Hg4 mi
7:20 PM48 °FLight rain. Fog.18 mph94%29.42 "Hg3 mi
6:50 PM48 °FLight rain. Fog.18 mph94%29.42 "Hg3 mi
6:20 PM48 °FLight rain. Fog.18 mph94%29.45 "Hg2 mi
5:50 PM48 °FSnow showers. Fog.20 mph100%29.45 "Hg2 mi
5:20 PM48 °FLight rain. Low clouds.17 mph94%29.45 "Hg5 mi
4:50 PM48 °FLight rain. Low clouds.18 mph94%29.47 "Hg4 mi
4:20 PM46 °FRain. Fog.17 mph100%29.47 "Hg4 mi
3:50 PM46 °FLight rain. Fog.18 mph100%29.47 "Hg3 mi
3:20 PM46 °FLight rain. Fog.16 mph100%29.50 "Hg2 mi
2:50 PM46 °FLight rain. Fog.17 mph100%29.50 "Hg3 mi
2:20 PM46 °FLight rain. Fog.17 mph100%29.50 "Hg2 mi
1:50 PM46 °FDrizzle. Low clouds.14 mph100%29.53 "Hg1 mi
1:20 PM45 °FFog.13 mph100%29.53 "Hg1 mi
12:50 PM45 °FFog.13 mph100%29.53 "Hg0 mi
12:20 PM45 °FFog.15 mph100%29.56 "Hg1 mi
Weather by CustomWeather, © 2014

See weather overviewHow to use our weather pages